Back to catalog

KUIPER-00613

AliveCommunicationsLEO
NORAD 69293·PAYLOAD·🇺🇸 United States

Launched May 29, 2026 from Vandenberg Space Force Base

Loading…

Next Passes (next 24 hours)

TLE

FreshSource: CelesTrak SupGP

Epoch: Sep 14, 2026, 14:01 UTC

1 69293C 26118AC  26257.58432870 -.00009234  00000+0 -12090-2 0  2576
2 69293  51.9017   7.8525 0000461  95.2656 201.9546 14.79933074    10

Track KUIPER-00613 in real time with AllMySat

Download on the App Store